Location: Newark
(54.4000°N, 32.4500°E)
Time: 11:36:19
(UTC+00:00)

Envisat - Pass Details

Date: 24 January 2020
Orbit: 764 x 766 km, 98.1° (Epoch: 20 February)

Event Time Altitude Azimuth Distance (km) Brightness Sun altitude
Rises 03:26:01 0° 23° (NNE) 3,247 6.5 -20.8°
Reaches altitude 10° 03:28:54 10° 40° (NE) 2,315 5.9 -20.4°
Maximum altitude 03:32:44 21° 89° (E) 1,669 5.6 -19.9°
Drops below altitude 10° 03:36:33 10° 138° (SE) 2,301 6.1 -19.3°
Sets 03:39:23 0° 154° (SSE) 3,221 6.7 -18.9°
